THOR ABLESTAR DEB, 660

Orbit data source: Space-Track

THOR ABLESTAR DEB, 660 is space debris in LEO originally from a launch on Thu, 29 Jun 1961 UTC launched from the Air Force Eastern Test Range (AFETR). Debris objects in space refer to the collection of defunct objects orbiting the Earth. Examples of debris include non-operational satellites, rocket bodies, and fragments generated from explosions, collisions, or faulty payload assembly.

Loading next visibility...
Identifier
660, 1961-015HM
Orbit
LEO
Country
Flag of USUS
Related business
Manufacturer
Unknown
Mission
Spacecraft
Bus & Motor
Unknown
Mass
Unknown
Launch date (UTC)
1961-06-29 (64 years ago)
Launch vehicle
Unknown
Launch site
Air Force Eastern Test Range (AFETR)
Object type
Payload
Rocket body
Debris
Shape & HBR
Unknown
Radar Cross Section
Small (<0.1 m²)

Expand to show TLE details & history
Last TLE update: 3 days ago

TLE from 3 days ago
0 THOR ABLESTAR DEB
1 00660U 61015HM  25256.42544551  .00012606  00000-0  10520-2 0  9990
2 00660  66.4991 275.4447 0017220 358.3959 115.4324 14.98694130343663
Epoch: 2025-09-13T10:12Z
TLE epoch observation values (Epoch: 2025-09-13T10:12:38.492Z)
Latitude
57.02399°
Longitude
-92.17528°
Altitude
584.776 km
Speed
7.571 km/s
True Right ascension
03h 34m 34s
True Declination
56° 51' 46"
Sunlit
Object was in daylight at epoch
Visualization orbit readout
Latitude
Unknown
Longitude
Unknown
Altitude
Unknown
Speed
Unknown
Apparent Right ascension
Unknown
Apparent Declination
Unknown
Sunlit
N/A
Visualization observer readout
Local Sidereal Time
06:57:28
Azimuth
Unknown
Elevation
Unknown
Doppler factor
Unknown
Orbital elements
Apogee altitude
581.241 km
Perigee altitude
557.314 km
Semi-major axis
6,947.414 km
Eccentricity
0.00172
Inclination
66.4991°
RAAN
275.4447°
Arg. of periapsis
358.3959°
True anomaly
115.61044°
Mean anomaly
115.4324°
Eccentric anomaly
115.52144°
Mean motion
3.74808 °/min
Orbital period
96.05 mins
BSTAR
0.001052
Loading maneuver chart data...
Computing Atmospheric mass density...

Documentation

Showing up to 5 results
|